Location: Tel Aviv
(32.0670°N, 34.7670°E)
Time: 12:59:40
(UTC+03:00)

Transit 2A - Pass Details

Date: 30 January 2022
Orbit: 598 x 960 km, 66.7° (Epoch: 20 May)

Event Time Altitude Azimuth Distance (km) Brightness Sun altitude
Rises 19:11:43 0° 334° (NNW) 3,513 9.7 -25.3°
Reaches altitude 10° 19:14:20 10° 334° (NNW) 2,522 8.9 -25.9°
Maximum altitude 19:20:10 87° 246° (WSW) 815 6.0 -27.1°
Enters shadow 19:20:36 77° 168° (SSE) 829 6.0 -27.2°
Drops below altitude 10° 19:25:26 10° 157° (SSE) 2,282 - -28.2°
Sets 19:27:38 0° 157° (SSE) 3,127 - -28.7°
